Location: Boiro
(42.6475°N, 8.8834°W)
Time: 17:59:55
(UTC+01:00)

Altair - Pass Details

Date: 07 December 2021
Orbit: 1501 x 1683 km, 47.2° (Epoch: 25 January)

Event Time Altitude Azimuth Distance (km) Brightness Sun altitude
Rises 14:58:46 0° 210° (SSW) 4,840 11.6 21.3°
Reaches altitude 10° 15:02:08 10° 204° (SSW) 3,831 11.9 21.1°
Maximum altitude 15:11:04 43° 137° (SE) 2,098 8.7 20.4°
Drops below altitude 10° 15:19:41 10° 71° (ENE) 3,713 9.2 19.7°
Sets 15:22:52 0° 64° (ENE) 4,678 9.6 19.4°
